Weather in Gornyy Balykley

Russia / Volgograd Oblast     49°33′05″N   45°04′02″E
temp.,
°C
wind,
m/s
gust,
m/s
humid.,
%
clouds,
%
prec.,
mm/h
press.,
hPa
HPBL,
m
25 february, thu
thu2500:00−18nw2477100 0.0 1040154
03:00−17w1276100 0.0 103974
06:00−16ssw2378100 0.0 1038137
09:00−13ssw467298 0.0 1036353
12:00−10ssw6969100 0.0 1034578
15:00−8sw71169100 0.0 1030754
18:00−9sw71393100 0.8 1027557
21:00−8sw71489100 1.1 1025467
26 february, fri
fri2600:00−6wsw71390100 0.9 1021436
03:00−3w81392100 1.2 1019356
06:00−1w61095100 0.1 1017209
09:000w5996100 0.1 1018249
12:00+2w51098100 0.3 1017226
15:00+2w5998100 0.4 1017177
18:00+2w71297100 0.2 1016265
21:00+2w8159599 0.2 1015331
27 february, sat
sat2700:00+3w81594100 0.1 1012367
03:00+3w81494100 0.4 1011350
06:00+2w71492100 0.1 1010372
09:00+2w61194100 0.1 1009326
12:00+3w61290100 0.0 1008515
15:00+3w71288100 0.0 1008527
18:00+1w51092100 0.1 1008254
21:00+1w5119298 0.1 1009374
28 february, sun
sun2800:00+1w71193100 0.1 1008351
03:000w7119797 0.1 1008456
06:00+1wnw61091100 0.0 1009475
09:00−1nnw568581 0.1 1011354
12:00−2nnw467461 0.0 1012627
15:00−2nnw467460 0.0 1013678
18:00−5nnw577999 0.0 1015489
21:00−6nnw5780100 0.0 1018566
1 march, mon
mon100:00−7nnw587999 0.0 1019557
03:00−8nnw577974 0.0 1021499
06:00−9nnw588035 0.0 1022502
09:00−8nnw687626 0.0 1024559
12:00−6nnw566941 0.0 1025640
15:00−5nnw577020 0.0 1026677
18:00−7nnw587516 0.0 1027580
21:00−8nnw47798 0.0 1029515